Time,TemperatureF,DewpointF,PressureIn,WindDirection,WindDirectionDegrees,WindSpeedMPH,WindSpeedGustMPH,Humidity,HourlyPrecipIn,Conditions,Clouds,dailyrainin,SoftwareType,DateUTC
2013-10-02 00:09:00,62.2,57.0,30.00,SW,223,0.0,0.0,83,0.00,,,0.00,weatherlink.com 1.10,2013-10-02 05:09:00,
2013-10-02 00:24:00,61.7,57.0,30.00,SW,223,0.0,0.0,85,0.00,,,0.00,weatherlink.com 1.10,2013-10-02 05:24:00,
2013-10-02 00:39:00,61.0,57.0,30.01,SW,223,0.0,0.0,87,0.00,,,0.00,weatherlink.com 1.10,2013-10-02 05:39:00,
2013-10-02 00:54:00,60.1,56.0,30.01,SW,223,0.0,0.0,87,0.00,,,0.00,weatherlink.com 1.10,2013-10-02 05:54:00,
2013-10-02 01:09:00,59.2,55.0,30.01,SW,223,0.0,0.0,87,0.00,,,0.00,weatherlink.com 1.10,2013-10-02 06:09:00,
2013-10-02 01:24:00,58.4,55.0,30.02,SW,223,0.0,0.0,87,0.00,,,0.00,weatherlink.com 1.10,2013-10-02 06:24:00,
2013-10-02 01:39:00,57.7,54.0,30.02,SW,223,0.0,0.0,88,0.00,,,0.00,weatherlink.com 1.10,2013-10-02 06:39:00,
2013-10-02 01:54:00,57.3,55.0,30.03,SW,223,0.0,0.0,91,0.00,,,0.00,weatherlink.com 1.10,2013-10-02 06:54:00,
2013-10-02 02:09:00,56.8,54.0,30.03,SW,223,0.0,0.0,90,0.00,,,0.00,weatherlink.com 1.10,2013-10-02 07:09:00,
2013-10-02 02:24:00,56.1,53.0,30.03,SW,223,0.0,0.0,89,0.00,,,0.00,weatherlink.com 1.10,2013-10-02 07:24:00,
2013-10-02 02:39:00,55.9,53.0,30.03,SW,223,0.0,0.0,89,0.00,,,0.00,weatherlink.com 1.10,2013-10-02 07:39:00,
2013-10-02 02:54:00,55.6,52.0,30.04,SW,223,0.0,0.0,88,0.00,,,0.00,weatherlink.com 1.10,2013-10-02 07:54:00,
2013-10-02 03:09:00,55.5,52.0,30.04,SW,223,0.0,0.0,89,0.00,,,0.00,weatherlink.com 1.10,2013-10-02 08:09:00,
2013-10-02 03:24:00,55.1,52.0,30.04,SW,223,0.0,0.0,89,0.00,,,0.00,weatherlink.com 1.10,2013-10-02 08:24:00,
2013-10-02 03:39:00,54.7,52.0,30.05,SW,223,0.0,0.0,90,0.00,,,0.00,weatherlink.com 1.10,2013-10-02 08:39:00,
2013-10-02 03:55:00,54.5,52.0,30.05,SW,223,0.0,0.0,91,0.00,,,0.00,weatherlink.com 1.10,2013-10-02 08:55:00,
2013-10-02 04:10:00,54.2,52.0,30.06,SW,223,0.0,0.0,91,0.00,,,0.00,weatherlink.com 1.10,2013-10-02 09:10:00,
2013-10-02 04:25:00,54.0,52.0,30.06,SW,223,0.0,0.0,92,0.00,,,0.00,weatherlink.com 1.10,2013-10-02 09:25:00,
2013-10-02 04:40:00,54.0,52.0,30.07,SW,223,0.0,0.0,93,0.00,,,0.00,weatherlink.com 1.10,2013-10-02 09:40:00,
2013-10-02 04:55:00,54.0,52.0,30.07,SW,223,0.0,0.0,93,0.00,,,0.00,weatherlink.com 1.10,2013-10-02 09:55:00,
2013-10-02 05:10:00,54.1,53.0,30.07,SW,223,0.0,0.0,94,0.00,,,0.00,weatherlink.com 1.10,2013-10-02 10:10:00,
2013-10-02 05:25:00,54.7,53.0,30.08,SW,223,0.0,0.0,94,0.00,,,0.00,weatherlink.com 1.10,2013-10-02 10:25:00,
2013-10-02 05:40:00,55.0,53.0,30.08,SW,223,0.0,0.0,93,0.00,,,0.00,weatherlink.com 1.10,2013-10-02 10:40:00,
2013-10-02 05:55:00,54.6,53.0,30.08,SW,223,0.0,0.0,94,0.00,,,0.00,weatherlink.com 1.10,2013-10-02 10:55:00,
2013-10-02 06:10:00,54.3,53.0,30.09,SW,223,0.0,0.0,94,0.00,,,0.00,weatherlink.com 1.10,2013-10-02 11:10:00,
2013-10-02 06:25:00,54.1,53.0,30.09,SW,223,0.0,1.0,94,0.00,,,0.00,weatherlink.com 1.10,2013-10-02 11:25:00,
2013-10-02 06:40:00,53.9,52.0,30.10,SW,223,0.0,0.0,94,0.00,,,0.00,weatherlink.com 1.10,2013-10-02 11:40:00,
2013-10-02 06:55:00,54.0,52.0,30.10,SW,223,0.0,0.0,93,0.00,,,0.00,weatherlink.com 1.10,2013-10-02 11:55:00,
2013-10-02 07:10:00,54.2,52.0,30.10,NW,304,0.0,0.0,92,0.00,,,0.00,weatherlink.com 1.10,2013-10-02 12:10:00,
2013-10-02 07:25:00,54.3,52.0,30.11,NW,307,0.0,0.0,91,0.00,,,0.00,weatherlink.com 1.10,2013-10-02 12:25:00,
2013-10-02 07:40:00,54.4,52.0,30.11,NW,307,0.0,0.0,91,0.00,,,0.00,weatherlink.com 1.10,2013-10-02 12:40:00,
2013-10-02 07:55:00,55.1,52.0,30.11,NW,308,0.0,0.0,90,0.00,,,0.00,weatherlink.com 1.10,2013-10-02 12:55:00,
2013-10-02 08:10:00,55.7,52.0,30.11,NW,308,0.0,0.0,88,0.00,,,0.00,weatherlink.com 1.10,2013-10-02 13:10:00,
2013-10-02 08:25:00,56.0,53.0,30.11,NNW,336,0.0,0.0,89,0.00,,,0.00,weatherlink.com 1.10,2013-10-02 13:25:00,
2013-10-02 08:40:00,56.8,54.0,30.12,North,5,0.0,2.0,89,0.00,,,0.00,weatherlink.com 1.10,2013-10-02 13:40:00,
2013-10-02 08:55:00,58.2,54.0,30.12,North,5,0.0,0.0,87,0.00,,,0.00,weatherlink.com 1.10,2013-10-02 13:55:00,
2013-10-02 09:10:00,59.8,55.0,30.12,North,5,0.0,0.0,85,0.00,,,0.00,weatherlink.com 1.10,2013-10-02 14:10:00,
2013-10-02 09:25:00,61.7,55.0,30.12,East,80,0.0,3.0,79,0.00,,,0.00,weatherlink.com 1.10,2013-10-02 14:25:00,
2013-10-02 09:40:00,63.6,54.0,30.13,North,10,0.0,5.0,72,0.00,,,0.00,weatherlink.com 1.10,2013-10-02 14:40:00,
2013-10-02 09:55:00,64.8,52.0,30.13,NNW,334,1.0,4.0,63,0.00,,,0.00,weatherlink.com 1.10,2013-10-02 14:55:00,
2013-10-02 10:10:00,66.0,52.0,30.13,North,9,0.0,3.0,62,0.00,,,0.00,weatherlink.com 1.10,2013-10-02 15:10:00,
2013-10-02 10:25:00,67.8,50.0,30.13,North,360,0.0,2.0,54,0.00,,,0.00,weatherlink.com 1.10,2013-10-02 15:25:00,
2013-10-02 10:40:00,68.8,47.0,30.13,NNE,22,1.0,5.0,46,0.00,,,0.00,weatherlink.com 1.10,2013-10-02 15:40:00,
2013-10-02 10:55:00,69.6,45.0,30.12,NNE,27,0.0,6.0,42,0.00,,,0.00,weatherlink.com 1.10,2013-10-02 15:55:00,
2013-10-02 11:10:00,70.3,45.0,30.12,ESE,102,0.0,4.0,41,0.00,,,0.00,weatherlink.com 1.10,2013-10-02 16:10:00,
2013-10-02 11:25:00,71.3,44.0,30.11,NNE,31,2.0,6.0,37,0.00,,,0.00,weatherlink.com 1.10,2013-10-02 16:25:00,
2013-10-02 11:41:00,72.0,43.0,30.11,ESE,107,0.0,5.0,35,0.00,,,0.00,weatherlink.com 1.10,2013-10-02 16:41:00,
2013-10-02 11:56:00,72.8,46.0,30.11,SE,144,1.0,4.0,38,0.00,,,0.00,weatherlink.com 1.10,2013-10-02 16:56:00,
2013-10-02 12:11:00,73.9,44.0,30.11,ESE,111,1.0,4.0,34,0.00,,,0.00,weatherlink.com 1.10,2013-10-02 17:11:00,